Showing default

COSMOS 2550, 48865

Orbit data source: Space-Track

COSMOS 2550, 48865 is a payload satellite owned by VVKO VKS (CIS) in LEO that was launched on Fri, 25 Jun 2021 UTC via a SOYUZ-2-1B launch vehicle from the Plesetsk Missile And Space Complex (PKMTR). Payload-class satellites include a variety of spacecraft equipped with specific instruments for various scientific and technological missions. These include communications satellites like Starlink; space stations such as the ISS; scientific satellites like the Hubble; Earth observation satellites from companies like Planet Labs, Umbra, and HawkEye 360; GPS; miniature CubeSats for education and research; and military/defense satellites.

Loading next visibility...
Identifier
48865, 2021-056A
Orbit
LEO
Country
Flag of CISCIS
Related business
Manufacturer
TSSKBP/ARSLO
Mission
Operational Defense Sigint
Bus & Motor
PION-NKS, Unknown motor
Mass
7,231 kg wet, ~6,700 kg dry
Launch date (UTC)
2021-06-25 (5 years ago)
Launch vehicle
SOYUZ-2-1B
Launch site
Plesetsk Missile And Space Complex (PKMTR)
Object type
Payload
Rocket body
Debris
Shape & HBR
Cyl + 2 Pan, 4.3 m
Radar Cross Section
24.037 m², Large (>1 m²)

Expand to show TLE details & history
Last TLE update: 14 hours ago

TLE from 14 hours ago
0 COSMOS 2550
1 48865U 21056A   26235.57912311  .00004026  00000-0  12810-3 0  9999
2 48865  67.1409 256.0457 0008369 269.2395  90.7800 15.33838595289059
Epoch: 2026-08-23T13:53Z
TLE epoch observation values (Epoch: 2026-08-23T13:53:56.236Z)
Latitude
-0.00009°
Longitude
75.68819°
Altitude
466.699 km
Speed
7.633 km/s
True Right ascension
17h 04m 10s
True Declination
0° 00' 00"
Sunlit
Object was in daylight at epoch
Visualization orbit readout
Latitude
Unknown
Longitude
Unknown
Altitude
Unknown
Speed
Unknown
Apparent Right ascension
Unknown
Apparent Declination
Unknown
Sunlit
N/A
Visualization observer readout
Local Sidereal Time
18:56:44
Azimuth
Unknown
Elevation
Unknown
Doppler factor
Unknown
Orbital elements
Apogee altitude
468.341 km
Perigee altitude
456.891 km
Semi-major axis
6,840.753 km
Eccentricity
0.00084
Inclination
67.1409°
RAAN
256.0457°
Arg. of periapsis
269.2395°
True anomaly
90.87589°
Mean anomaly
90.78°
Eccentric anomaly
90.82795°
Mean motion
3.83608 °/min
Orbital period
93.85 mins
BSTAR
0.0001281
Loading maneuver chart data...
Computing Atmospheric mass density...
Loading historical data...
Loading historical data...
Loading historical data...
Loading historical data...
Loading historical data...
Loading historical data...
Loading historical data...
Other satellites on launch #56 in the year 2021 (2021-06-25 UTC)

Documentation

Showing up to 5 results
|